Date String (YYYY-MM-DD hh:mm:ss) UTC,Instrument flags,Ambient pressure (hPa),Sample flow (lpm),Bypass flow (lpm),Sample temperature (°C),Ambient temperature (°C),ASC tube jacket temperature (°C),LED temperature (°C),Box temperature (°C),Sample RH (%),Span deviation,Mass concentration (μg/m³),Mass concentration (μg/m³),Mass concentration (μg/m³)
DateTimeUTC,F1_M11,P_M11,Q1_M11,Q2_M11,T1_M11,T2_M11,T3_M11,T4_M11,T5_M11,U1_M11,ZSPAN_M11,X0_M11,X2_M11,X1_M11
2022-07-08 18:00:00,,0832.7,4.99,0.00,30.0,28.2,00.0,38.6,31.6,33.8,0000.0,0012.82,0005.24,0004.38
2022-07-08 18:01:00,,0832.6,5.01,0.00,30.0,28.3,00.0,38.6,31.6,33.5,0000.0,0012.19,0005.25,0004.36
2022-07-08 18:02:00,,0832.6,4.99,0.00,30.1,28.0,00.0,38.6,31.7,33.6,0000.0,0011.94,0005.25,0004.32
2022-07-08 18:03:00,,0832.6,5.00,0.00,30.0,27.5,00.0,38.5,31.5,33.9,0000.0,0011.98,0005.23,0004.30
2022-07-08 18:04:00,,0832.5,4.99,0.00,30.0,27.2,00.0,38.5,31.5,34.0,0000.0,0011.78,0005.21,0004.29
2022-07-08 18:05:00,,0832.5,5.00,0.00,29.9,27.2,00.0,38.5,31.4,34.3,0000.0,0011.84,0005.24,0004.33
2022-07-08 18:06:00,,0832.5,5.00,0.00,29.9,27.3,00.0,38.5,31.4,34.8,0000.0,0011.55,0005.24,0004.36
2022-07-08 18:07:00,,0832.5,5.00,0.00,29.8,27.5,00.0,38.5,31.4,34.9,0000.0,0011.83,0005.26,0004.40
2022-07-08 18:08:00,,0832.4,5.00,0.00,29.8,27.7,00.0,38.5,31.4,35.0,0000.0,0011.89,0005.33,0004.44
2022-07-08 18:09:00,,0832.4,5.00,0.00,29.9,27.9,00.0,38.5,31.5,34.4,0000.0,0012.13,0005.45,0004.47
2022-07-08 18:10:00,,0832.4,4.99,0.00,30.0,28.0,00.0,38.5,31.6,35.3,0000.0,0012.40,0005.52,0004.51
2022-07-08 18:11:00,,0832.4,5.00,0.00,30.2,28.2,00.0,38.5,31.7,35.0,0000.0,0012.74,0005.54,0004.54
2022-07-08 18:12:00,,0832.4,5.00,0.00,30.4,28.3,00.0,38.5,31.9,34.3,0000.0,0012.80,0005.57,0004.57
2022-07-08 18:13:00,,0832.4,5.00,0.00,30.6,27.8,00.0,38.5,31.8,34.1,0000.0,0012.83,0005.59,0004.59
2022-07-08 18:14:00,,0832.5,4.99,0.00,30.6,27.4,00.0,38.5,31.7,33.9,0000.0,0012.95,0005.59,0004.61
2022-07-08 18:15:00,,0832.4,4.99,0.00,30.6,27.3,00.0,38.5,31.6,33.8,0000.0,0014.12,0005.67,0004.64
2022-07-08 18:16:00,,0832.4,5.00,0.00,30.5,27.3,00.0,38.6,31.5,33.9,0000.0,0013.86,0005.69,0004.63
2022-07-08 18:17:00,,0832.3,4.99,0.00,30.4,27.5,00.0,38.6,31.5,33.9,0000.0,0014.47,0005.72,0004.63
2022-07-08 18:18:00,,0832.4,5.01,0.00,30.4,27.6,00.0,38.6,31.5,33.7,0000.0,0015.52,0005.74,0004.63
2022-07-08 18:19:00,,0832.3,5.00,0.00,30.4,27.8,00.0,38.7,31.5,33.3,0000.0,0015.60,0005.73,0004.64
2022-07-08 18:20:00,,0832.3,5.00,0.00,30.4,28.0,00.0,38.7,31.6,33.6,0000.0,0015.31,0005.67,0004.65
2022-07-08 18:21:00,,0832.3,5.01,0.00,30.4,28.1,00.0,38.7,31.7,33.3,0000.0,0014.83,0005.68,0004.66
2022-07-08 18:22:00,,0832.3,5.01,0.00,30.4,28.2,00.0,38.7,31.7,33.0,0000.0,0014.77,0005.67,0004.66
2022-07-08 18:23:00,,0832.3,5.00,0.00,30.4,27.8,00.0,38.7,31.7,33.1,0000.0,0015.26,0005.66,0004.68
2022-07-08 18:24:00,,0832.3,5.00,0.00,30.3,27.3,00.0,38.7,31.5,32.4,0000.0,0015.39,0005.68,0004.69
2022-07-08 18:25:00,,0832.3,5.00,0.00,30.3,27.2,00.0,38.6,31.5,33.2,0000.0,0015.90,0005.71,0004.70
2022-07-08 18:26:00,,0832.4,5.00,0.00,30.2,27.3,00.0,38.7,31.5,33.9,0000.0,0014.39,0005.71,0004.73
2022-07-08 18:27:00,,0832.3,5.01,0.00,30.1,27.4,00.0,38.7,31.5,35.1,0000.0,0014.01,0005.70,0004.74
2022-07-08 18:28:00,,0832.3,5.01,0.00,30.2,27.6,00.0,38.7,31.6,34.8,0000.0,0013.74,0005.72,0004.77
2022-07-08 18:29:00,,0832.3,4.99,0.00,30.4,27.8,00.0,38.7,31.7,34.5,0000.0,0012.72,0005.70,0004.77
2022-07-08 18:30:00,,0832.3,4.99,0.00,30.4,28.0,00.0,38.7,31.7,34.2,0000.0,0012.48,0005.70,0004.77
2022-07-08 18:31:00,,0832.3,5.00,0.00,30.4,28.2,00.0,38.7,31.7,34.1,0000.0,0013.10,0005.76,0004.80
2022-07-08 18:32:00,,0832.2,5.00,0.00,30.5,28.2,00.0,38.7,31.7,33.7,0000.0,0013.16,0005.80,0004.83
2022-07-08 18:33:00,,0832.3,5.00,0.00,30.4,27.7,00.0,38.7,31.7,33.8,0000.0,0013.10,0005.89,0004.86
2022-07-08 18:34:00,,0832.3,5.00,0.00,30.4,27.4,00.0,38.6,31.6,33.9,0000.0,0012.91,0005.92,0004.87
2022-07-08 18:35:00,,0832.3,5.00,0.00,30.3,27.4,00.0,38.6,31.5,33.4,0000.0,0013.35,0005.98,0004.91
2022-07-08 18:36:00,,0832.3,5.01,0.00,30.2,27.5,00.0,38.6,31.5,34.2,0000.5,0013.18,0005.97,0004.92
2022-07-08 18:37:00,,0832.3,5.00,0.00,30.2,27.6,00.0,38.6,31.5,34.6,0000.0,0013.55,0005.95,0004.92
2022-07-08 18:38:00,,0832.3,5.01,0.00,30.2,27.8,00.0,38.7,31.5,34.8,0000.9,0013.61,0005.98,0004.98
2022-07-08 18:39:00,,0832.2,5.00,0.00,30.2,28.0,00.0,38.7,31.6,35.1,0001.1,0014.17,0006.02,0005.03
2022-07-08 18:40:00,,0832.3,5.00,0.00,30.4,28.2,00.0,38.7,31.8,34.7,0001.1,0014.92,0006.12,0005.10
2022-07-08 18:41:00,,0832.2,4.99,0.00,30.5,28.2,00.0,38.7,31.8,34.2,0000.9,0015.45,0006.20,0005.15
2022-07-08 18:42:00,,0832.2,5.00,0.00,30.5,27.7,00.0,38.6,31.7,34.5,0000.9,0015.59,0006.19,0005.18
2022-07-08 18:43:00,,0832.2,5.01,0.00,30.4,27.4,00.0,38.6,31.6,34.7,0000.5,0016.44,0006.20,0005.18
2022-07-08 18:44:00,,0832.3,5.00,0.00,30.4,27.4,00.0,38.6,31.6,34.3,0000.0,0016.99,0006.15,0005.17
2022-07-08 18:45:00,,0832.2,4.99,0.00,30.4,27.5,00.0,38.6,31.5,33.4,0000.0,0017.41,0006.14,0005.16
2022-07-08 18:46:00,,0832.3,5.00,0.00,30.4,27.6,00.0,38.7,31.5,33.5,0000.0,0016.83,0006.07,0005.14
2022-07-08 18:47:00,,0832.3,4.99,0.00,30.4,27.8,00.0,38.7,31.6,33.7,0000.0,0016.46,0006.12,0005.16
2022-07-08 18:48:00,,0832.3,4.99,0.00,30.4,28.0,00.0,38.7,31.6,33.8,0000.0,0016.04,0006.12,0005.15
2022-07-08 18:49:00,,0832.3,5.00,0.00,30.4,28.2,00.0,38.7,31.7,33.6,0000.0,0016.00,0006.10,0005.13
2022-07-08 18:50:00,,0832.3,5.00,0.00,30.4,28.2,00.0,38.7,31.7,33.3,0000.0,0015.10,0006.07,0005.10
2022-07-08 18:51:00,,0832.3,5.00,0.00,30.3,27.7,00.0,38.7,31.6,33.2,0000.0,0014.80,0006.01,0005.06
2022-07-08 18:52:00,,0832.2,5.01,0.00,30.3,27.3,00.0,38.6,31.5,33.7,0000.0,0014.78,0005.97,0005.01
2022-07-08 18:53:00,,0832.3,5.00,0.00,30.2,27.2,00.0,38.6,31.4,33.8,0000.0,0014.07,0005.93,0004.97
2022-07-08 18:54:00,,0832.3,5.00,0.00,30.1,27.3,00.0,38.6,31.3,33.8,0000.0,0013.63,0005.90,0004.95
2022-07-08 18:55:00,,0832.3,5.00,0.00,30.0,27.4,00.0,38.6,31.3,33.9,0000.0,0013.13,0005.97,0004.99
2022-07-08 18:56:00,,0832.2,4.99,0.00,30.0,27.6,00.0,38.6,31.4,34.5,0000.0,0013.14,0005.96,0005.01
2022-07-08 18:57:00,,0832.3,5.00,0.00,30.0,27.8,00.0,38.6,31.4,34.5,0000.0,0013.62,0005.97,0005.01
2022-07-08 18:58:00,,0832.2,5.00,0.00,30.0,28.0,00.0,38.6,31.5,34.3,0000.0,0013.86,0005.94,0004.99
2022-07-08 18:59:00,,0832.3,5.00,0.00,30.0,28.1,00.0,38.6,31.6,34.0,0000.0,0014.27,0005.93,0004.99
